{"data":{"norad_id":57701,"epoch":"2026-05-25T03:02:07.845216Z","epoch_age_seconds":63710,"freshness":"FRESH","line1":"1 57701U 23129D   26145.12647969  .00000289  00000+0  20026-4 0  9991","line2":"2 57701  43.0026  46.1457 0001024 239.0501 121.0250 15.27577349152235","mean_motion":15.27577349,"eccentricity":0.0001024,"inclination_deg":43.0026,"raan_deg":46.1457,"arg_perigee_deg":239.0501,"mean_anomaly_deg":121.025,"bstar":2.0026e-5,"rev_number":15223,"period_min":94.266912306776,"perigee_km":482.35444782973,"apogee_km":483.75962036792,"semimajor_km":6861.1940340988,"source":"CELESTRAK","updated_at":"2026-05-25T13:38:18.371532Z"}}